ヒル彗星

P/2008 L2 ( Hill )

English version
Home page
Total 6,336 html files since Dec. 4, 1995
Updated on August 24, 2008

---------------------------------------------------------------------

・ プロフィール

発見日 2008年6月12日
発見光度 18.3等
発見者 R. E. Hill (Catalina Sky Survey)

・ 写真集

・ 軌道要素

Epoch 2008 Aug. 2.0 TT = JDT 2454680.5
T 2008 Aug. 18.61452 TT                                 MPC
q   2.3172932            (2000.0)            P               Q
n   0.06709237     Peri.  141.32286     +0.96141158     +0.06024747
a   5.9981957      Node   217.98191     -0.07430362     +0.99632939
e   0.6136683      Incl.   25.86098     +0.26489006     +0.06081113
P  14.69

・ 星図

・ 光度変化

        m1 = 12.5 + 5 logΔ + 10.0 log r

---------------------------------------------------------------------

軌道要素はM.P.E.C. 2008-Q05に掲載されたものです。
星図はステラナビゲータ Ver.8 (アストロアーツ) で作成したものです。
光度グラフはComet for Windowsで作成したものです。

---------------------------------------------------------------------

Copyright(C) 1995-2008 Seiichi Yoshida (comet@aerith.net). All rights reserved.